Miscellaneous Local Product
Issued by NWS Hastings, NE

Home | Current Version | Previous Version | Graphics & Text | Print | Product List | Glossary On
Versions: 1 2 3 4 5 6 7 8 9 10 11 12 13 14 15 16 17 18 19 20 21 22 23 24 25 26 27 28 29 30 31 32 33 34 35 36 37 38 39 40 41 42 43 44 45 46 47 48 49 50
000
AXUS43 KGID 171802
MISGRI

GID CWA HOURLY WEATHER ROUNDUP
NATIONAL WEATHER SERVICE HASTINGS NE
100 PM CDT THU APR 17 2014

NOTE: "FAIR" INDICATES FEW OR NO CLOUDS BELOW 12,000 FEET WITH NO
SIGNIFICANT WEATHER AND/OR OBSTRUCTIONS TO VISIBILITY.

...SOUTH CENTRAL NEBRASKA...

CITY           SKY/WX    TMP DP  RH WIND       PRES   REMARKS
GRAND ISLAND   SUNNY     44  25  47 CALM      30.31F
HASTINGS       SUNNY     44  26  49 E3        30.29F
KEARNEY        SUNNY     41  27  56 NE5       30.30F
ORD            SUNNY     45  23  42 SE8       30.28F
YORK           SUNNY     45  27  49 NE6       30.31F
AURORA         SUNNY     44  27  52 NE6       30.30F
LEXINGTON      SUNNY     39  28  63 CALM      30.30F
HOLDREGE       PTSUNNY   38  27  64 CALM      30.30F
HEBRON         SUNNY     44  28  53 N8        30.31F

...NEBRASKA PANHANDLE...

CITY           SKY/WX    TMP DP  RH WIND       PRES   REMARKS
CHADRON        CLOUDY    42  34  73 S14       30.12F
ALLIANCE       CLOUDY    38  31  76 S16       30.15F WCI  29
SCOTTSBLUFF    CLOUDY    46  35  65 SE14      30.12F
SIDNEY         CLOUDY    38  34  85 SE17      30.15F FOG     WCI  28

...WESTERN AND NORTH CENTRAL NEBRASKA...

CITY           SKY/WX    TMP DP  RH WIND       PRES   REMARKS
VALENTINE      FLURRIES  38  22  52 SE12      30.24F WCI  30
AINSWORTH      MOSUNNY   44  24  46 SE12      30.24F
ONEILL         SUNNY     42  20  41 E3        30.30F
BROKEN BOW     SUNNY     43  24  47 S8        30.27F
IMPERIAL       CLOUDY    38  30  73 SE14      30.24F WCI  30
NORTH PLATTE   MOSUNNY   42  26  53 VRB5      30.25F
MCCOOK         SUNNY     43  29  57 VRB7      30.29F

...EASTERN NEBRASKA...

CITY           SKY/WX    TMP DP  RH WIND       PRES   REMARKS
NORFOLK        SUNNY     45  22  40 CALM      30.30F
SO SIOUX CITY  SUNNY     45  25  45 VRB6      30.32F
TEKAMAH        SUNNY     45  26  47 VRB3      30.33F
COLUMBUS       SUNNY     43  27  52 E6        30.32F
ALBION         SUNNY     43  23  46 E5        30.31F
OMAHA EPPLEY   MOSUNNY   46  26  45 NW9       30.32F
OFFUTT AFB     SUNNY     44  28  51 W2        30.31F
MILLARD        SUNNY     42  26  53 CALM      30.32F
LINCOLN        SUNNY     48  27  44 VRB5      30.32F
NEBRASKA CITY  MOSUNNY   42  28  57 N7        30.31F
BEATRICE       MOSUNNY   44  26  48 N8        30.30F
FALLS CITY     MOSUNNY   46  28  49 N9        30.30F

...NORTHERN KANSAS...

CITY           SKY/WX    TMP DP  RH WIND       PRES   REMARKS
GOODLAND       CLOUDY    44  33  65 S16G22    30.24F
HILL CITY      SUNNY     45  27  49 W5        30.31F
PHILLIPSBURG   SUNNY     45  27  49 W6        30.32F
SMITH CENTER   SUNNY     43  27  52 E3        30.31F
BELOIT         SUNNY     46  28  49 NW6       30.30F
HAYS           PTSUNNY   45  27  49 N6        30.31F
RUSSELL        PTSUNNY   45  27  49 VRB6      30.29F
CONCORDIA      MOSUNNY   46  28  49 W5        30.30F
SALINA         PTSUNNY   45  28  51 E3        30.32F
TOPEKA         CLOUDY    46  32  58 NE7       30.32F



USA.gov is the U.S. government's official web portal to all federal, state and local government web resources and services.